{"data":{"norad_id":62812,"intl_designator":"2025-018G","name":"STARLINK-32837","alt_names":[],"object_type":"PAYLOAD","status":"ACTIVE","operator":null,"country":"US","launch_date":"2025-01-24","launch_site_code":"AFWTR","launch_vehicle":null,"mission":null,"orbit_class":"UNKNOWN","rcs_meters":null,"size_class":null,"mass_kg":null,"dimensions":null,"purposes":["comms"],"wikipedia_slug":null,"has_3d_model":false,"image_url":null,"decayed_at":null,"tle_current":{"epoch":"2026-05-25T04:38:36.652128Z","epoch_age_seconds":62313,"freshness":"FRESH","line1":"1 62812U 25018G   26145.19347977  .00005330  00000+0  19206-3 0  9991","line2":"2 62812  53.1604 314.1005 0000988  90.2258 269.8856 15.30183011 74890","mean_motion":15.30183011,"eccentricity":9.88e-5,"inclination_deg":53.1604,"raan_deg":314.1005,"arg_perigee_deg":90.2258,"mean_anomaly_deg":269.8856,"bstar":0.00019206,"rev_number":7489,"period_min":94.106390519846,"perigee_km":474.58867978412,"apogee_km":475.9429121766,"semimajor_km":6853.4027959804,"source":"CELESTRAK","updated_at":"2026-05-25T13:38:19.773780Z"}}}